#
# The Tor Project
#
# URL: https://metrics.torproject.org/networksize.csv?start=2018-04-18&end=2018-07-17
#
date,relays,bridges
2018-04-18,6420,1646
2018-04-19,6425,1648
2018-04-20,6427,1646
2018-04-21,6421,1651
2018-04-22,6425,1663
2018-04-23,6416,1663
2018-04-24,6423,1665
2018-04-25,6425,1667
2018-04-26,6429,1660
2018-04-27,6431,1652
2018-04-28,6400,1662
2018-04-29,6414,1654
2018-04-30,6402,1651
2018-05-01,6479,1657
2018-05-02,6464,1652
2018-05-03,6434,1639
2018-05-04,6438,1639
2018-05-05,6468,1641
2018-05-06,6463,1649
2018-05-07,6406,1645
2018-05-08,6426,1637
2018-05-09,6458,1641
2018-05-10,6464,1643
2018-05-11,6456,1633
2018-05-12,6467,1639
2018-05-13,6512,1644
2018-05-14,6479,1633
2018-05-15,6471,1632
2018-05-16,6462,1633
2018-05-17,6449,1628
2018-05-18,6445,1624
2018-05-19,6465,1626
2018-05-20,6498,1625
2018-05-21,6466,1625
2018-05-22,6450,1626
2018-05-23,6439,1630
2018-05-24,6417,1629
2018-05-25,6388,1621
2018-05-26,6383,1626
2018-05-27,6388,1632
2018-05-28,6370,1634
2018-05-29,6343,1637
2018-05-30,6349,1635
2018-05-31,6331,1632
2018-06-01,6402,1639
2018-06-02,6421,1645
2018-06-03,6416,1643
2018-06-04,6418,1651
2018-06-05,6409,1650
2018-06-06,6408,1645
2018-06-07,6402,1639
2018-06-08,6379,1637
2018-06-09,6380,1636
2018-06-10,6370,1628
2018-06-11,6362,1630
2018-06-12,6335,1631
2018-06-13,6333,1633
2018-06-14,6338,1637
2018-06-15,6348,1630
2018-06-16,6346,1626
2018-06-17,6349,1622
2018-06-18,6352,1619
2018-06-19,6356,1619
2018-06-20,6339,1617
2018-06-21,6318,1612
2018-06-22,6352,1612
2018-06-23,6342,1609
2018-06-24,6353,1613
2018-06-25,6344,1621
2018-06-26,6335,1614
2018-06-27,6355,1615
2018-06-28,6351,1620
2018-06-29,6333,1615
2018-06-30,6337,1604
2018-07-01,6455,1618
2018-07-02,6492,1619
2018-07-03,6489,1617
2018-07-04,6506,1611
2018-07-05,6503,1606
2018-07-06,6490,1602
2018-07-07,6486,
2018-07-08,6476,
2018-07-09,6469,
2018-07-10,6462,
2018-07-11,6462,
2018-07-12,6460,
2018-07-13,6465,2
2018-07-14,6455,36
2018-07-15,6453,123
2018-07-16,6450,161
2018-07-17,6453,222
